Location: ??????
(55.7522°N, 37.6156°E)
Time: 17:40:11
(UTC+00:00)

Cosmos 2242 Rocket - Pass Details

Date: 14 June 2025
Orbit: 613 x 646 km, 82.5° (Epoch: 13 July)

Event Time Altitude Azimuth Distance (km) Brightness Sun altitude
Exits shadow 21:54:29 14° 167° (SSE) 1,784 5.3 -10.8°
Maximum altitude 21:58:12 50° 95° (E) 807 4.2 -10.7°
Drops below altitude 10° 22:02:30 10° 20° (NNE) 2,012 7.6 -10.6°
Sets 22:04:46 0° 16° (NNE) 2,918 9.1 -10.6°
